Perryton, TX

11:33 AM CDT on June 23, 2017 (GMT -0500)
Perryton Ochiltree County

Weather History for KPYX - April, 2013

Change the Weather History Date:

Wednesday, April 17, 2013

  Actual Average Record
Temperature  
Mean Temperature 38 °F -  
Max Temperature 42 °F 72 °F 93 °F (2006)
Min Temperature 34 °F 39 °F 27 °F (1974)
Degree Days  
Heating Degree Days 26    
Moisture  
Dew Point 38 °F    
Average Humidity 96    
Maximum Humidity 97    
Minimum Humidity 92    
Precipitation  
Precipitation 0.04 in - - ()
Sea Level Pressure  
Sea Level Pressure 29.81 in    
Wind  
Wind Speed 15 mph (NNE)    
Max Wind Speed 30 mph    
Max Gust Speed 38 mph    
Visibility 3 miles    
Events      
Averages and records for this station are not official NWS values.
T = Trace of Precipitation, MM = Missing Value Source: NWS Daily Summary

Daily Weather History Graph

Daily Weather History Graph

Search for Another Location

Airport or City:

Trip Planner

Search our weather history database for the weather conditions in past years. The results will help you decide how hot, cold, wet, or windy it might be!

Date:

Astronomy

Apr. 17, 2013 Rise Set
Actual Time 7:06 AM CDT 8:19 PM CDT
Civil Twilight 6:39 AM CDT 8:45 PM CDT
Nautical Twilight 6:07 AM CDT 9:17 PM CDT
Astronomical Twilight 5:34 AM CDT 9:51 PM CDT
Moon 12:25 PM CDT (4/17) 1:54 AM CDT (4/17)
Length of Visible Light 14h 06m
Length of Day
13h 12m
Waxing Crescent, 42% of the Moon is Illuminated
Apr 17
Waxing Crescent
Apr 18
First Quarter
Apr 25
Full
May 2
Last Quarter
May 9
New

Hourly Weather History & Observations

Time (CDT) Temp. Windchill Dew Point Humidity Pressure Visibility Wind Dir Wind Speed Gust Speed Precip Events Conditions
12:15 AM 43.3 °F 36.5 °F 41.9 °F 95% 29.89 in 1.8 mi ENE 13.8 mph - N/A   Overcast
12:35 AM 43.2 °F 35.3 °F 41.9 °F 95% 29.89 in 1.5 mi East 17.3 mph - N/A   Overcast
12:55 AM 42.8 °F 35.8 °F 41.9 °F 97% 29.88 in 1.5 mi East 13.8 mph - N/A   Overcast
1:15 AM 42.8 °F 35.4 °F 41.5 °F 95% 29.88 in 1.5 mi East 15.0 mph - N/A   Overcast
1:35 AM 42.8 °F 35.4 °F 41.5 °F 95% 29.88 in 2.0 mi East 15.0 mph - N/A   Overcast
1:55 AM 42.4 °F 34.1 °F 41.4 °F 96% 29.87 in 2.0 mi East 18.4 mph - N/A   Overcast
2:15 AM 42.3 °F 35.1 °F 41.2 °F 96% 29.87 in 2.0 mi East 13.8 mph - N/A   Overcast
2:35 AM 42.1 °F 35.2 °F 41.0 °F 96% 29.87 in 2.0 mi ENE 12.7 mph - N/A   Overcast
2:55 AM 41.9 °F 35.0 °F 40.6 °F 95% 29.87 in 2.5 mi ENE 12.7 mph - N/A   Overcast
3:15 AM 41.4 °F 34.7 °F 40.5 °F 97% 29.86 in 3.0 mi ENE 11.5 mph - N/A   Overcast
3:35 AM 41.2 °F 34.1 °F 40.3 °F 97% 29.85 in 2.5 mi ENE 12.7 mph - N/A   Overcast
3:55 AM 41.2 °F 35.5 °F 40.3 °F 97% 29.85 in 3.0 mi NE 9.2 mph - N/A   Overcast
4:35 AM 40.5 °F 34.6 °F 39.6 °F 97% 29.85 in 2.5 mi NE 9.2 mph - N/A   Overcast
4:55 AM 40.3 °F 33.9 °F 39.4 °F 97% 29.85 in 2.0 mi NE 10.4 mph - N/A   Overcast
5:15 AM 40.3 °F 35.5 °F 39.4 °F 97% 29.85 in 2.0 mi NNE 6.9 mph - 0.01 in   Overcast
5:35 AM 39.7 °F 33.7 °F 38.8 °F 97% 29.85 in 1.8 mi NNE 9.2 mph - 0.01 in   Overcast
5:55 AM 39.9 °F 33.9 °F 39.0 °F 97% 29.85 in 2.0 mi NNE 9.2 mph - 0.01 in   Overcast
6:15 AM 39.2 °F 33.0 °F 38.3 °F 97% 29.85 in 2.0 mi North 9.2 mph - N/A   Overcast
6:35 AM 38.8 °F 32.6 °F 37.9 °F 97% 29.86 in 2.0 mi NNE 9.2 mph - N/A   Overcast
6:55 AM 39.2 °F 32.5 °F 38.3 °F 97% 29.85 in 2.0 mi NNE 10.4 mph - N/A   Overcast
7:15 AM 38.8 °F 32.1 °F 37.9 °F 97% 29.85 in 2.5 mi NNE 10.4 mph - N/A   Overcast
7:35 AM 38.7 °F 31.4 °F 37.8 °F 97% 29.85 in 2.0 mi NNE 11.5 mph - N/A   Overcast
7:55 AM 38.3 °F 30.1 °F 37.4 °F 97% 29.85 in 1.2 mi North 13.8 mph 18.4 mph N/A   Overcast
8:15 AM 38.1 °F 30.2 °F 37.2 °F 97% 29.86 in 1.2 mi NNE 12.7 mph - N/A   Overcast
8:35 AM 37.6 °F 29.6 °F 36.7 °F 97% 29.85 in 1.5 mi NNE 12.7 mph - N/A   Overcast
9:15 AM 37.6 °F 29.6 °F 36.7 °F 97% 29.86 in 1.8 mi North 12.7 mph - N/A   Overcast
9:35 AM 37.6 °F 29.1 °F 36.7 °F 97% 29.85 in 1.8 mi NNE 13.8 mph - N/A   Overcast
9:55 AM 37.8 °F 30.2 °F 36.9 °F 97% 29.85 in 1.8 mi NNE 11.5 mph - N/A   Overcast
10:15 AM 37.9 °F 30.9 °F 37.0 °F 97% 29.85 in 1.5 mi NNE 10.4 mph - N/A   Overcast
10:35 AM 38.3 °F 30.9 °F 37.4 °F 97% 29.85 in 1.8 mi NNE 11.5 mph - N/A   Overcast
10:55 AM 38.5 °F 31.1 °F 37.6 °F 97% 29.85 in 1.5 mi NNE 11.5 mph - N/A   Overcast
11:15 AM 38.8 °F 31.6 °F 37.8 °F 96% 29.84 in 1.8 mi NNE 11.5 mph - N/A   Overcast
11:35 AM 39.4 °F 32.3 °F 38.3 °F 96% 29.84 in 2.5 mi NNE 11.5 mph - N/A   Overcast
11:55 AM 39.9 °F 32.9 °F 38.5 °F 95% 29.84 in 2.5 mi North 11.5 mph 16.1 mph N/A   Overcast
12:15 PM 40.1 °F 32.7 °F 39.0 °F 96% 29.84 in 3.0 mi North 12.7 mph - N/A   Overcast
12:35 PM 40.5 °F 32.5 °F 39.2 °F 95% 29.82 in 2.5 mi North 15.0 mph - N/A   Overcast
12:55 PM 40.3 °F 33.0 °F 38.8 °F 95% 29.81 in 2.5 mi North 12.7 mph 18.4 mph N/A   Overcast
1:15 PM 40.3 °F 32.6 °F 39.2 °F 96% 29.80 in 2.0 mi North 13.8 mph 18.4 mph N/A   Overcast
1:35 PM 41.0 °F 33.1 °F 39.7 °F 95% 29.79 in 3.0 mi North 15.0 mph - N/A   Overcast
1:55 PM 41.4 °F 34.0 °F 39.9 °F 95% 29.78 in 4.0 mi North 13.8 mph - N/A   Overcast
2:15 PM 42.8 °F 35.8 °F 40.8 °F 93% 29.78 in 10.0 mi North 13.8 mph 19.6 mph N/A   Overcast
2:35 PM 42.6 °F 34.9 °F 40.5 °F 92% 29.77 in 10.0 mi North 16.1 mph 19.6 mph N/A   Overcast
2:55 PM 42.8 °F 35.8 °F 40.6 °F 92% 29.76 in 10.0 mi NNE 13.8 mph - N/A   Overcast
3:35 PM 42.1 °F 34.2 °F 40.6 °F 95% 29.74 in 4.0 mi North 16.1 mph - N/A   Overcast
3:55 PM 41.9 °F 33.7 °F 40.5 °F 95% 29.73 in 4.0 mi North 17.3 mph 20.7 mph N/A   Overcast
4:15 PM 41.9 °F 34.3 °F 40.3 °F 94% 29.73 in 5.0 mi North 15.0 mph - N/A   Overcast
4:35 PM 41.9 °F 34.0 °F 40.3 °F 94% 29.73 in 7.0 mi North 16.1 mph - N/A   Overcast
4:55 PM 41.5 °F 33.8 °F 40.1 °F 95% 29.74 in 7.0 mi NNE 15.0 mph 20.7 mph N/A   Overcast
5:15 PM 41.4 °F 34.0 °F 40.1 °F 95% 29.74 in 3.0 mi North 13.8 mph - N/A   Overcast
5:35 PM 41.2 °F 32.4 °F 39.7 °F 95% 29.72 in 3.0 mi NNE 18.4 mph 23.0 mph N/A   Overcast
5:55 PM 40.3 °F 31.6 °F 39.2 °F 96% 29.72 in 1.5 mi NNE 17.3 mph - N/A   Overcast
6:15 PM 40.1 °F 31.3 °F 38.8 °F 95% 29.71 in 1.5 mi NNE 17.3 mph - 0.01 in   Overcast
6:35 PM 39.7 °F 30.6 °F 38.5 °F 95% 29.71 in 1.5 mi NNE 18.4 mph 25.3 mph 0.02 in   Overcast
6:55 PM 39.4 °F 31.1 °F 38.3 °F 96% 29.70 in 1.5 mi NNE 15.0 mph 23.0 mph 0.02 in   Overcast
7:15 PM 38.3 °F 28.4 °F 37.0 °F 95% 29.70 in 1.8 mi North 19.6 mph 26.5 mph N/A   Overcast
7:35 PM 37.6 °F 26.6 °F 36.5 °F 96% 29.71 in 2.0 mi North 23.0 mph 28.8 mph N/A   Overcast
7:55 PM 36.7 °F 26.0 °F 35.6 °F 96% 29.74 in 2.5 mi North 20.7 mph 29.9 mph N/A   Overcast
8:15 PM 36.5 °F 26.7 °F 35.4 °F 96% 29.74 in 2.5 mi North 17.3 mph 28.8 mph N/A   Overcast
8:35 PM 36.5 °F 24.7 °F 35.4 °F 96% 29.76 in 2.0 mi North 25.3 mph 28.8 mph N/A   Overcast
8:55 PM 36.5 °F 25.4 °F 35.2 °F 95% 29.76 in 2.0 mi North 21.9 mph 28.8 mph 0.01 in   Overcast
9:15 PM 36.0 °F 23.7 °F 35.1 °F 97% 29.79 in 2.5 mi North 26.5 mph 31.1 mph N/A   Overcast
9:55 PM 35.2 °F 22.3 °F 34.0 °F 95% 29.81 in 4.0 mi North 28.8 mph 38.0 mph N/A   Overcast
10:15 PM 34.7 °F 21.3 °F 33.4 °F 95% 29.82 in 3.0 mi North 29.9 mph 34.5 mph N/A   Overcast
10:35 PM 34.3 °F 21.8 °F 33.1 °F 95% 29.84 in 2.5 mi North 25.3 mph 34.5 mph N/A   Overcast
10:55 PM 34.5 °F 21.5 °F 33.1 °F 94% 29.86 in 3.0 mi North 27.6 mph 33.4 mph N/A   Overcast
11:15 PM 34.3 °F 21.5 °F 33.3 °F 96% 29.85 in 3.0 mi NNW 26.5 mph 31.1 mph N/A   Overcast
11:35 PM 34.7 °F 22.5 °F 33.4 °F 95% 29.87 in 3.0 mi NNW 24.2 mph 29.9 mph N/A   Overcast
11:55 PM 34.7 °F 22.8 °F 33.6 °F 96% 29.88 in 4.0 mi NNW 23.0 mph - N/A   Overcast